Regional Weather Roundup
Issued by NWS Memphis, TN

Home | Current Version | Previous Version | Text Only | Print | Product List | Glossary On
Versions: 1 2 3 4 5 6 7 8 9 10 11 12 13 14 15 16 17 18 19 20 21 22 23 24 25 26 27 28 29 30 31 32 33 34 35 36 37 38 39 40 41 42 43 44 45 46 47 48 49 50
000
ASUS44 KMEG 240510
RWRMEG
MEMPHIS CWA HOURLY WEATHER ROUNDUP
NATIONAL WEATHER SERVICE MEMPHIS TN
1100 PM CST THU FEB 23 2017

...WEST TENNESSEE...

CITY           SKY/WX    TMP DP  RH WIND       PRES   REMARKS
MEMPHIS INTL   CLEAR     64  60  87 S12       29.68S
NWS MEMPHIS      N/A     63 N/A N/A MISG        N/A
JACKSON        CLEAR     64  58  80 S10G21    29.70F
BOLIVAR        CLEAR     63  57  82 SE9       29.71S
SAVANNAH       CLOUDY    63  57  82 S8        29.73S
UNION CITY     CLEAR     63  61  94 S10       29.66S
PARIS          CLEAR     61  55  82 S13       29.69F
HUNTINGDON     CLEAR     64  57  77 S12G18    29.69F


...EASTERN ARKANSAS...

CITY           SKY/WX    TMP DP  RH WIND       PRES   REMARKS
JONESBORO      CLEAR     65  54  67 S12       29.62S
WEST MEMPHIS   CLEAR     63  60  90 S15       29.66F
BATESVILLE     CLEAR     64  54  68 SE5       29.61R
NEWPORT        CLEAR     62  56  80 S18       29.61R
WALNUT RIDGE   PTCLDY    63  54  72 S17       29.59F
BLYTHEVILLE    CLEAR     63  59  87 S13       29.65S
SEARCY         CLEAR     64  58  80 S9        29.62F
STUTTGART      CLEAR     66  52  59 S17       29.64F
PINE BLUFF     CLEAR     65  56  72 S14       29.64F
MONTICELLO     CLEAR     64  55  72 S7        29.67S


...NORTH MISSISSIPPI...

CITY           SKY/WX    TMP DP  RH WIND       PRES   REMARKS
TUPELO         CLEAR     63  56  78 SE13      29.74F
OXFORD         CLEAR     61  57  88 S12G17    29.74S
BATESVILLE     CLEAR     64  59  85 SE7       29.72R
TUNICA         CLEAR     61  57  88 SE7       29.69S
CORINTH        CLEAR     61  55  82 S7        29.73S
GREENWOOD      CLEAR     66  55  67 S10       29.72R
COLUMBUS       CLEAR     58  56  92 SE7       29.76S
STARKVILLE     CLEAR     61  57  88 S7        29.77F
GOLDEN TRIANGL CLEAR     61  54  77 S10       29.73S


...SOUTHEAST MISSOURI...

CITY           SKY/WX    TMP DP  RH WIND       PRES   REMARKS
KENNETT        CLEAR     63  59  88 S10       29.62S
MALDEN         MOCLDY    64  59  82 S18       29.62F
WEST PLAINS    CLEAR     63  55  75 S12       29.57S
POPLAR BLUFF   PTCLDY    66  56  70 S14       29.59F
CAPE GIRARDEAU PTCLDY    63  56  78 S13       29.60F


...NORTHWEST ALABAMA...

CITY           SKY/WX    TMP DP  RH WIND       PRES   REMARKS
MUSCLE SHOALS  CLEAR     63  55  75 S7        29.78S


...MIDDLE TENNESSEE...

CITY           SKY/WX    TMP DP  RH WIND       PRES   REMARKS
NASHVILLE      PTCLDY    64  54  69 S13       29.76S
CLARKSVILLE    CLEAR     63  54  72 S7        29.71S
COLUMBIA       CLEAR     63  63 100 S5        29.75S


...WESTERN KENTUCKY...

CITY           SKY/WX    TMP DP  RH WIND       PRES   REMARKS
PADUCAH        PTCLDY    64  55  72 S9G21     29.64R
FORT CAMPBELL  CLEAR     64  55  72 S9        29.70S


...CENTRAL ARKANSAS...

CITY           SKY/WX    TMP DP  RH WIND       PRES   REMARKS
LITTLE ROCK    PTCLDY    64  56  75 S7        29.62S


SKY/WX REPORTED AS FAIR MEANS FEW OR NO CLOUDS BELOW
12 THOUSAND FEET.





USA.gov is the U.S. government's official web portal to all federal, state and local government web resources and services.